This is the latest recevied weather packets stored in our database for station/object DC0VZ-6. If no packets are shown the sender has not sent any weather packets the latest 10 day(s).
| Time | Temp. | Humidity | Pressure | Rain* | Wind** | Luminosity | Snow |
|---|---|---|---|---|---|---|---|
| 1777756572 | 12.22° C | 5% | 985 hPa | 0 mm | - | - | - |
| 1777755972 | 12.78° C | 5% | 985 hPa | 0 mm | - | - | - |
| 1777755372 | 12.78° C | 5% | 985.1 hPa | 0 mm | - | - | - |
| 1777754772 | 13.33° C | 5% | 985.1 hPa | 0 mm | - | - | - |
| 1777754173 | 13.33° C | 5% | 985.3 hPa | 0 mm | - | - | - |
| 1777753572 | 13.89° C | 5% | 985.3 hPa | 0 mm | - | - | - |
| 1777752977 | 14.44° C | 5% | 985.2 hPa | 0 mm | - | - | - |
| 1777752372 | 14.44° C | 5% | 985.2 hPa | 0 mm | - | - | - |
| 1777751771 | 15° C | 5% | 985 hPa | 0 mm | - | - | - |
| 1777751171 | 15.56° C | 5% | 985 hPa | 0 mm | - | - | - |
| 1777750571 | 16.67° C | 5% | 984.8 hPa | 0 mm | - | - | - |
| 1777749374 | 17.78° C | 5% | 984.8 hPa | 0 mm | - | - | - |
| 1777748771 | 18.33° C | 5% | 984.8 hPa | 0 mm | - | - | - |
| 1777748171 | 18.89° C | 5% | 984.8 hPa | 0 mm | - | - | - |
| 1777747571 | 20° C | 5% | 984.8 hPa | 0 mm | - | - | - |
| 1777746971 | 21.11° C | 5% | 985 hPa | 0 mm | - | - | - |
| 1777746371 | 21.67° C | 5% | 985 hPa | 0 mm | - | - | - |
| 1777745770 | 21.67° C | 5% | 984.9 hPa | 0 mm | - | - | - |
| 1777745170 | 22.22° C | 5% | 984.9 hPa | 0 mm | - | - | - |
| 1777744570 | 22.78° C | 5% | 985.1 hPa | 0 mm | - | - | - |
| 1777743970 | 23.33° C | 5% | 985.1 hPa | 0 mm | - | - | - |
| 1777743370 | 23.33° C | 5% | 985.3 hPa | 0 mm | - | - | - |
| 1777742770 | 23.89° C | 5% | 985.3 hPa | 0 mm | - | - | - |
| 1777742170 | 24.44° C | 5% | 985.2 hPa | 0 mm | - | - | - |
| 1777741570 | 25° C | 5% | 985.2 hPa | 0 mm | - | - | - |
* Rain latest hour (hover to see other rain measurements)
** Current wind speed in m/s (hover to see current wind gust speed)